Location: The Saddle
(36.8333°N, 80.3417°W)
Time: 08:42:18
(UTC-05:00)

Vanguard 2 Rocket - Pass Details

Date: 18 December 2023
Orbit: 555 x 3309 km, 32.9° (Epoch: 02 March)

Event Time Altitude Azimuth Distance (km) Brightness Sun altitude
Rises 16:41:48 0° 282° (WNW) 6,093 11.9 3.5°
Reaches altitude 10° 16:45:33 10° 277° (W) 5,381 11.8 2.9°
Maximum altitude 17:01:50 49° 209° (SSW) 3,853 10.7 0.1°
Drops below altitude 10° 17:20:24 10° 142° (SE) 6,032 11.0 -3.2°
Sets 17:24:58 0° 137° (SE) 6,845 11.2 -4.0°
